Date,TemperatureHighF,TemperatureAvgF,TemperatureLowF,DewpointHighF,DewpointAvgF,DewpointLowF,HumidityHigh,HumidityAvg,HumidityLow,PressureMaxIn,PressureMinIn,WindSpeedMaxMPH,WindSpeedAvgMPH,GustSpeedMaxMPH,PrecipitationSumIn
2013-1-1,40.6,37.3,28.2,32.8,26.7,15.1,78,65,52,30.36,30.19,16,5,16,0.00
2013-1-2,34.0,28.6,23.2,20.7,17.1,12.9,71,62,53,30.53,30.35,17,4,17,0.00
2013-1-3,38.3,26.7,21.4,22.8,17.3,-22.7,87,70,10,30.57,30.42,11,3,11,0.00
2013-1-4,44.4,33.2,24.8,27.8,23.4,18.7,78,68,48,30.44,30.29,14,4,14,0.00
2013-1-5,51.4,36.2,25.7,30.8,25.1,21.8,92,66,41,30.64,30.35,13,3,13,0.00
2013-1-6,53.6,37.4,25.7,39.2,31.4,23.7,99,80,52,30.60,30.34,10,2,10,0.00
2013-1-7,50.9,38.1,23.0,38.7,29.8,21.6,94,74,44,30.77,30.40,9,2,9,0.00
2013-1-8,55.9,36.4,22.5,39.2,30.6,21.5,99,82,48,30.81,30.71,13,2,13,0.00
2013-1-9,50.5,39.8,24.6,44.4,35.1,24.4,99,85,62,30.76,30.48,15,3,15,0.00
2013-1-10,55.4,44.1,33.3,36.8,30.7,26.8,81,60,37,30.91,30.56,17,4,17,0.00
2013-1-11,48.4,39.6,28.6,48.1,36.3,26.5,99,88,70,30.91,30.46,9,2,9,0.38
2013-1-12,56.1,44.3,41.9,48.5,44.1,41.6,99,99,99,30.54,29.93,11,3,11,0.07
2013-1-13,49.8,45.3,40.6,49.6,45.0,40.4,99,99,99,30.52,30.38,12,3,12,0.00
2013-1-14,59.9,49.6,36.7,58.4,47.0,34.5,99,91,72,30.65,30.29,10,3,10,0.05
2013-1-15,39.4,37.2,34.5,35.6,32.5,29.4,99,84,71,30.71,30.58,9,3,9,0.09
2013-1-16,36.9,35.4,33.6,36.4,35.0,32.4,99,98,88,30.60,30.15,8,2,8,0.41
2013-1-17,49.6,39.1,34.2,36.8,33.3,25.1,99,80,61,30.46,30.27,11,2,11,0.00
2013-1-18,37.2,28.3,20.7,25.8,14.7,8.4,73,58,35,30.86,30.38,15,4,15,0.00
2013-1-19,55.6,40.6,20.7,39.1,30.0,13.4,83,67,44,30.79,30.31,21,8,21,0.11
2013-1-20,59.4,45.6,30.9,36.5,29.0,14.3,79,55,25,30.39,30.04,24,8,24,0.02
2013-1-21,33.3,29.6,24.8,27.4,17.9,10.5,96,63,46,30.48,30.18,11,3,11,0.00
2013-1-22,29.7,22.3,13.8,22.4,6.5,-5.6,78,51,35,30.54,30.17,18,7,18,0.00
2013-1-23,25.5,16.9,11.7,2.4,-0.2,-3.7,62,47,32,30.61,30.51,16,5,16,0.00
2013-1-24,28.0,18.6,16.3,5.3,0.6,-1.3,57,45,33,30.74,30.50,15,5,15,0.00
2013-1-25,27.7,19.7,13.3,19.1,10.5,3.6,97,68,47,30.77,30.41,10,3,10,0.00
2013-1-26,32.4,23.4,17.8,18.8,12.8,6.0,95,65,44,30.70,30.38,16,5,16,0.00
2013-1-27,40.1,25.8,15.1,20.0,13.6,8.9,85,61,34,30.86,30.70,11,3,11,0.00
2013-1-28,35.6,29.0,16.9,35.4,26.6,12.9,99,91,64,30.85,30.38,10,2,10,0.20
2013-1-29,52.5,39.0,34.7,44.5,37.9,34.5,99,96,69,30.53,30.36,10,2,10,0.04
2013-1-30,57.6,47.1,38.8,57.3,46.8,38.6,99,99,99,30.48,29.80,27,6,27,0.01
2013-1-31,58.8,47.4,29.7,58.4,35.0,13.8,99,65,35,30.13,29.45,31,11,31,1.49